Regional Weather Roundup
Issued by NWS

Home | Current Version | Previous Version | Text Only | Print | Product List | Glossary On
Versions: 1 2 3 4 5 6 7 8 9 10 11 12 13 14 15 16 17 18 19 20 21 22 23 24 25 26 27 28 29 30 31 32 33 34 35 36 37 38 39 40 41 42 43 44 45 46 47 48 49 50
000
ASUS44 KBMX 222310
RWRAL

ALABAMA REGIONAL WEATHER ROUNDUP
NATIONAL WEATHER SERVICE BIRMINGHAM AL
600 PM CDT TUE JUL 22 2014

NOTE: "FAIR" INDICATES FEW OR NO CLOUDS BELOW 12,000 FEET
WITH NO SIGNIFICANT WEATHER AND/OR OBSTRUCTIONS TO VISIBILITY.

THE REMARK "TC" DENOTES TEMPERATURE IN DEGREES CELSIUS.

ALZ001>011-014-016>018-020-230000-
NORTH ALABAMA

CITY           SKY/WX    TMP DP  RH WIND       PRES   REMARKS
MUSCLE SHOALS  PTSUNNY   84  70  62 CALM      30.05F
HUNTSVILLE     MOSUNNY   87  70  56 SW3       30.05F HX  92
DECATUR        MOSUNNY   87  70  56 CALM      30.05F HX  92
HALEYVILLE     FAIR      85  73  67 CALM      30.08F HX  91
GADSDEN        PTSUNNY   81  73  78 CALM      30.05F
$$

ALZ012-013-022-023-030>036-040>044-230000-
WEST CENTRAL ALABAMA

CITY           SKY/WX    TMP DP  RH WIND       PRES   REMARKS
TUSCALOOSA     PTSUNNY   86  73  65 N5        30.02F HX  93
$$

ALZ015-024>027-033>036-040>044-230000-
CENTRAL ALABAMA

CITY           SKY/WX    TMP DP  RH WIND       PRES   REMARKS
BIRMINGHAM     PTSUNNY   84  70  62 E3        30.07S
MONTGOMERY     CLOUDY    83  69  62 E6        30.03S
SHELBY CO ARPT CLOUDY    81  72  74 CALM      30.05R
MAXWELL AFB    CLOUDY    83  71  66 E5        30.03F
GREENVILLE     FAIR      74  71  91 NE5       30.05R
$$

ALZ019-021-028-029-037-038-045>048-230000-
EAST CENTRAL ALABAMA

CITY           SKY/WX    TMP DP  RH WIND       PRES   REMARKS
ANNISTON       MOSUNNY   84  70  62 N8        30.05S
ALEXANDER CITY PTSUNNY   84  71  65 SE3       30.07S
AUBURN         PTSUNNY   81  70  69 NE5       30.09S
$$

ALZ051>064-230000-
SOUTHWEST ALABAMA

CITY           SKY/WX    TMP DP  RH WIND       PRES   REMARKS
MOBILE         LGT RAIN  80  74  81 W5        30.02F
BROOKLEY FIELD MOSUNNY   84  74  71 SW3       30.01S HX  91
EVERGREEN      PTSUNNY   83  75  77 SW3       30.03R HX  90
$$

ALZ049-050-065>069-230000-
SOUTHEAST ALABAMA

CITY           SKY/WX    TMP DP  RH WIND       PRES   REMARKS
DOTHAN         HVY RAIN  80  71  74 SW13G24   30.05F
OZARK          MOSUNNY   84  72  67 W6        30.02F HX  90
TROY           PTSUNNY   79  72  79 CALM      30.04F
EUFAULA        FAIR      86  71  60 SE5       30.02S HX  91
$$



USA.gov is the U.S. government's official web portal to all federal, state and local government web resources and services.